Regional Weather Roundup
Issued by NWS

Home | Current Version | Previous Version | Text Only | Print | Product List | Glossary On
Versions: 1 2 3 4 5 6 7 8 9 10 11 12 13 14 15 16 17 18 19 20 21 22 23 24 25 26 27 28 29 30 31 32 33 34 35 36 37 38 39 40 41 42 43 44 45 46 47 48 49 50
000
ASUS44 KOUN 310010
RWROK

WEATHER ROUNDUP FOR OKLAHOMA
NATIONAL WEATHER SERVICE NORMAN OK
700 PM CDT TUE AUG 30 2016

NOTE: "FAIR" INDICATES FEW OR NO CLOUDS BELOW 12,000 FEET WITH NO
      SIGNIFICANT WEATHER AND/OR OBSTRUCTIONS TO VISIBILITY.

OKZ001>007-009>012-014-015-017-310100-
NORTHWEST OKLAHOMA AND THE PANHANDLE

CITY           SKY/WX    TMP DP  RH WIND       PRES   REMARKS
GAGE           PTSUNNY   74  69  85 NE8       30.16R
6HR MIN TEMP:  74; 6HR MAX TEMP:  86; 6HR PCP:  0.11;

GUYMON         MOSUNNY   72  61  68 S5        30.18F
ENID/WOODRING  PTSUNNY   88  68  51 CALM      30.02S HX  91
$$

OKZ016-021>023-033>039-044-045-310100-
SOUTHWEST OKLAHOMA

CITY           SKY/WX    TMP DP  RH WIND       PRES   REMARKS
LAWTON/REGL    MOSUNNY   90  68  48 N12       30.00R HX  94
6HR MIN TEMP:  89; 6HR MAX TEMP:  95;

LAWTON/FT SILL MOSUNNY   89  73  58 N9        30.00R HX  97
FREDERICK      CLOUDY    77  73  87 W7        30.01R
CLINTON        CLOUDY    74  66  76 NW12      30.11R
HOBART         CLOUDY    84  70  62 N6        30.06S
ALTUS AFB      MOSUNNY   85  67  55 N9        30.04S
$$

OKZ018>020-024>031-310100-
CENTRAL OKLAHOMA

CITY           SKY/WX    TMP DP  RH WIND       PRES   REMARKS
OKLAHOMA CITY  PTSUNNY   90  63  40 E7        30.02S HX  91
6HR MIN TEMP:  88; 6HR MAX TEMP:  94;

OKC/WILEY POST PTSUNNY   89  65  44 E8        30.02S HX  91
OKC/TINKER AFB SUNNY     88  67  50 E7        30.02R HX  91
STILLWATER     MOSUNNY   90  68  48 E6        30.02R HX  94
GUTHRIE        SUNNY     87  70  56 E5        30.02S HX  92
$$

OKZ008-013-054>072-310100-
NORTHEAST OKLAHOMA

CITY           SKY/WX    TMP DP  RH WIND       PRES   REMARKS
TULSA          LGT RAIN  83  72  69 S6        30.00S
6HR MIN TEMP:  76; 6HR MAX TEMP:  96; 6HR PCP:  0.01;

TULSA/JONES    CLOUDY    76  75  97 NW3       30.01S
PONCA CITY     MOSUNNY   86  69  56 E7        30.02S HX  90
BARTLESVILLE   CLOUDY    84  71  65 CALM      30.03R
MUSKOGEE       CLOUDY    86  70  58 N7        30.00F HX  90
$$

OKZ032-040>043-046>053-073>077-310100-
SOUTH CENTRAL/SOUTHEAST OKLAHOMA

CITY           SKY/WX    TMP DP  RH WIND       PRES   REMARKS
ARDMORE/DWNTWN SUNNY     88  63  42 E6        29.98S
MCALESTER      CLOUDY    87  71  58 CALM      30.00S HX  93
$$





USA.gov is the U.S. government's official web portal to all federal, state and local government web resources and services.